Regional Weather Roundup
Issued by NWS Upton, NY

Home | Current Version | Previous Version | Text Only | Print | Product List | Glossary On
Versions: 1 2 3 4 5 6 7 8 9 10 11 12 13 14 15 16 17 18 19 20 21 22 23 24 25 26 27 28 29 30 31 32 33 34 35 36 37 38 39 40 41 42 43 44 45 46 47 48 49 50
000
ASUS41 KOKX 310004
RWROKX

REGIONAL WEATHER ROUNDUP
NATIONAL WEATHER SERVICE NEW YORK NY
800 PM EDT THU JUL 30 2015

NOTE: "FAIR" INDICATES FEW OR NO CLOUDS BELOW 12,000 FEET WITH NO
SIGNIFICANT WEATHER AND/OR OBSTRUCTIONS TO VISIBILITY.

NYZ071-072-176-178-NJZ106-104-310100-
NEW YORK CITY METRO AREA


CITY           SKY/WX    TMP DP  RH WIND       PRES   REMARKS
CENTRAL PARK   CLOUDY    78  73  84 VRB3      29.84S HAZE
LAGUARDIA APRT MOCLDY    79  71  76 S12       29.81S
KENNEDY INTL   CLOUDY    77  72  84 S13       29.83S
NEWARK/LIBERTY MOCLDY    79  73  82 S8        29.81S
BRNX BOT. GARD   N/A     77  73  88 SE3       29.82F
TETERBORO      CLOUDY    80  72  76 S8        29.80S
$$

NYZ177-179-078>081-310100-
LONG ISLAND NEW YORK

CITY           SKY/WX    TMP DP  RH WIND       PRES   REMARKS
FARMINGDALE    CLOUDY    76  72  87 SW13      29.83S
ISLIP          LGT RAIN  74  72  93 SW12      29.81F
SHIRLEY        LGT RAIN  75  72  90 SW6       29.83F
WESTHAMPTON    LGT RAIN  76  74  93 SW10      29.84F
MONTAUK POINT    N/A     76  73  91 SW6       29.85R
$$

NYZ052-065-067-310100-
HUDSON VALLEY

CITY           SKY/WX    TMP DP  RH WIND       PRES   REMARKS
WHITE PLAINS   MOCLDY    75  73  93 CALM      29.82S FOG
NEWBURGH       PTCLDY    79  75  89 CALM      29.82R
MONTGOMERY     PTCLDY    79  74  84 SW6       29.81R
POUGHKEEPSIE   PTCLDY    80  72  76 CALM      29.79R
ALBANY         MOCLDY    80  60  50 W7        29.80R
$$

NJZ001-105-106-008-010-013-015-019>022-104-310100-
NEW JERSEY

CITY           SKY/WX    TMP DP  RH WIND       PRES   REMARKS
NEWARK/LIBERTY MOCLDY    79  73  82 S8        29.81S
TETERBORO      CLOUDY    80  72  76 S8        29.80S
CALDWELL       MOCLDY    78  72  81 VRB5      29.82R
MORRISTOWN     MOCLDY    81  75  83 S5        29.83R
SOMERVILLE     MOCLDY    78  73  84 CALM      29.81R
SUSSEX         MOCLDY    79  74  84 SW3       29.82R
ANDOVER          N/A     77  75  93 CALM      29.84R
TRENTON        CLOUDY    77  73  87 SW5       29.83R
MILLVILLE      CLOUDY    78  75  90 CALM      29.86R
ATLANTIC CITY  CLOUDY    77  74  90 CALM      29.86R
WRIGHTSTOWN    MOCLDY    75  75  99 VRB5      29.82S
TOMS RIVER       N/A     75  73  94 SW5       29.85S
BELMAR         CLOUDY    75  70  83 SW6       29.85R
$$

PAZ047>061-062-071-310100-
EASTERN PENNSYLVANIA

CITY           SKY/WX    TMP DP  RH WIND       PRES   REMARKS
PHILADELPHIA   MOCLDY    80  73  79 SW8       29.85R
ALLENTOWN      PTCLDY    81  74  79 SW5       29.83R
SCRANTON       PTCLDY    83  62  49 CALM      29.86R
$$

CTZ002-004>006-009-010-012-RIZ004-006-007-MAZ004-011-015-310100-
SOUTHERN NEW ENGLAND
 IN CT

CITY           SKY/WX    TMP DP  RH WIND       PRES   REMARKS
BRADLEY INTL   CLOUDY    75  72  90 S8        29.79S
HARTFORD       CLOUDY    76  74  93 S6        29.79F
DANBURY        MOCLDY    75  50  41 SW7       29.83S
WTRBRY/OXFORD  MOCLDY    75  68  78 SW5       29.85S FOG
BRIDGEPORT     CLOUDY    76  73  91 SW9       29.80F
MERIDEN        CLOUDY    76  72  87 CALM      29.80F
NEW HAVEN      CLOUDY    74  72  93 S6        29.81F
CHESTER        MOCLDY    73  72  94 SW6       29.83F FOG
GROTON         LGT RAIN  73  72  96 SW8       29.82F FOG
WILLIMANTIC    CLOUDY    75  72  90 S6        29.82S

 IN RI

CITY           SKY/WX    TMP DP  RH WIND       PRES   REMARKS
PROVIDENCE     LGT RAIN  75  71  87 S14       29.83S
BLOCK ISLAND     N/A     75  73  94 SW14G20   29.85R
WESTERLY       RAIN      74  71  91 SW9       29.84F FOG

 IN MA

CITY           SKY/WX    TMP DP  RH WIND       PRES   REMARKS
BOSTON         CLOUDY    77  73  87 SW16      29.78S
WORCESTER      CLOUDY    73  71  93 SW13      29.83R
WESTFIELD      CLOUDY    75  72  90 S12       29.79S FOG
PROVINCETOWN   CLOUDY    73  64  73 SW18G24   29.81F
NANTUCKET      CLOUDY    72  70  93 S9        29.86S
$$

ANZ330-335-338-340-345-350-353-355-310100-
COASTAL MARINE OBSERVATIONS


STATION/POSITION TIME  SKY/WX   TEMP    WIND        PRES    VSBY  WAVE
                                AIR SEA DIR/SP/G                  HT/PER
                 (UTC)          (F)     (DEG/KT/KT) (MB)    (MI)  (FT/S)
NY HARB ENTRANCE 2250            76 76  200/ 10/ 14 1009.8          4/ 5
4S FIRE IS       NOT AVBL
20S FIRE ISLAND  2250            77 76  210/ 16/ 19 1009.6          5/ 6
GREAT SOUTH BAY  NOT AVBL
23SW MTP         2350            77 74  220/ 17/ 21 1009.6          5/ 5
HUDSON CANYON    NOT AVBL
KINGS POINT      2300            77 73  180/  7/  9 1008.9
EXECUTION ROCKS  2300            76     180/  4/  6   N/A
CENTRAL LI SOUND NOT AVBL
EASTERN LI SOUND 2300            74 70  230/ 14/ 19   N/A
ROBBINS REEF     2300            78     200/ 10/ 13 1008.5
$$


>>>>>>>>>>>>>>>>>>>>>>>>>>>> KEY <<<<<<<<<<<<<<<<<<<<<<<<<<<
>                                                          <
>     SKY/WX - SKY CONDITION/PRESENT WEATHER               <
>     TMP    - TEMPERATURE IN FAHRENHEIT                   <
>     DP     - DEWPOINT IN FAHRENHEIT                      <
>     RH     - RELATIVE HUMIDITY IN PERCENT                <
>     WIND   - DIRECTION AND SPEED IN MPH                  <
>     PRES   - MEAN SEA LEVEL PRESSURE IN INCHES OF HG     <
>     WCI    - WIND CHILL INDEX                            <
>     VSB    - VISIBILITY IN MILES                         <
>     HX     - HEAT INDEX                                  <
>     TC     - TEMPERATURE IN CELSIUS                      <
>     VRB    - VARIABLE WIND DIRECTION                     <
>                                                          <
>>>>>>>>>>>>>>>>>>>>>>>>>>>> KEY <<<<<<<<<<<<<<<<<<<<<<<<<<<




USA.gov is the U.S. government's official web portal to all federal, state and local government web resources and services.